Location: ?astrovice
(49.6513°N, 14.9287°E)
Time: 02:36:34
(UTC+00:00)

X-37B - Pass Details

Date: 06 August 2021
Orbit: 381 x 393 km, 45.0° (Epoch: 29 August)

Event Time Altitude Azimuth Distance (km) Brightness Sun altitude
Exits shadow 01:56:52 24° 187° (S) 838 1.8 -13.7°
Maximum altitude 01:57:30 26° 165° (SSE) 792 1.8 -13.7°
Drops below altitude 10° 02:00:12 10° 106° (ESE) 1,398 3.7 -13.4°
Sets 02:02:27 0° 94° (E) 2,253 5.1 -13.1°
